Find Starlink 35650

NORAD ID: 66573 Int'l Des: 2025-268 Owner: SPXS Country: US Constellation: starlink operational
LEOCIRCULAR

实时位置

正在加载3D地球...

关于 Starlink 35650

正在加载描述...

即将过境

Passes for default location (London). Set your location on the main map for personalized predictions.

高度历史

Loading altitude history...

两行轨道根数

1 66573U 25268S 26106.13536339 .00009229 00000-0 34428-3 0 9994
2 66573 42.9987 135.8463 0001184 275.3266 84.7451 15.27597800 23685
Epoch: Apr 16, 2026 • Age: 13 hours

当前状态

高度 482.5 km
速度 7.63 km/s
星下点 4.32°N, 145.13°W
发射日期 Nov 21, 2025
运行时间 0.3 years
类型 internet

技术详情

分类 Payload
质量 575.00 kg
干质量 530.00 kg
总质量 575.00 kg
长度 0.30 m
直径 4.10 m
跨度 29.00 m
形状 Box + pan
制造商 SPXS
平台类型 Starlink V2MO
阶段状态 In Orbit
所有者/国家 SPXS/US

Most Searched